| time (UTC) | temp F | wind direction | speed MPH | gust MPH | rain 1hr in | rain 24hr in | rain mn in | humidity % | barometer mb |
| 20260510073522 | 62 | 60 | 1.0 | 8.0 | 0.00 | 0.01 | 0.00 | 60 | 1016.1 |
| 20260510073037 | 62 | 53 | 1.0 | 6.0 | 0.00 | 0.01 | 0.00 | 60 | 1016.3 |
| 20260510072524 | 62 | 33 | 1.0 | 6.0 | 0.00 | 0.01 | 0.00 | 60 | 1016.3 |
| 20260510072025 | 62 | 42 | 2.0 | 6.0 | 0.00 | 0.01 | 0.00 | 60 | 1016.4 |
| 20260510071539 | 62 | 49 | 1.0 | 7.0 | 0.00 | 0.01 | 0.00 | 60 | 1016.4 |
| 20260510071020 | 62 | 0 | 1.0 | 7.0 | 0.00 | 0.01 | 0.00 | 60 | 1016.3 |
| 20260510070523 | 62 | 0 | 1.0 | 5.0 | 0.00 | 0.01 | 0.00 | 60 | 1016.1 |
| 20260510070052 | 62 | 0 | 0.0 | 3.0 | 0.00 | 0.01 | 0.00 | 60 | 1016.0 |
| 20260510065524 | 62 | 35 | 0.0 | 3.0 | 0.00 | 0.01 | 0.00 | 60 | 1015.9 |
| 20260510065021 | 62 | 0 | 0.0 | 4.0 | 0.00 | 0.01 | 0.00 | 59 | 1015.9 |
| 20260510064534 | 63 | 0 | 0.0 | 7.0 | 0.00 | 0.01 | 0.00 | 59 | 1015.8 |
| 20260510064023 | 63 | 10 | 1.0 | 7.0 | 0.00 | 0.01 | 0.00 | 58 | 1015.8 |
| 20260510063523 | 63 | 32 | 1.0 | 5.0 | 0.00 | 0.01 | 0.00 | 57 | 1015.6 |
| 20260510063042 | 63 | 0 | 0.0 | 6.0 | 0.00 | 0.01 | 0.00 | 57 | 1015.4 |
| 20260510062523 | 64 | 22 | 1.0 | 6.0 | 0.00 | 0.01 | 0.00 | 56 | 1015.3 |
| 20260510062023 | 64 | 0 | 2.0 | 6.0 | 0.00 | 0.01 | 0.00 | 55 | 1015.2 |
| 20260510061538 | 64 | 52 | 0.0 | 8.0 | 0.00 | 0.01 | 0.00 | 55 | 1015.4 |
| 20260510061023 | 64 | 26 | 2.0 | 8.0 | 0.00 | 0.01 | 0.00 | 55 | 1015.5 |
| 20260510060524 | 65 | 36 | 2.0 | 4.0 | 0.00 | 0.01 | 0.00 | 54 | 1015.4 |
| 20260510060041 | 65 | 9 | 1.0 | 5.0 | 0.00 | 0.01 | 0.00 | 54 | 1015.4 |
| 20260510055523 | 65 | 0 | 1.0 | 5.0 | 0.00 | 0.01 | 0.00 | 53 | 1015.3 |
| 20260510055024 | 65 | 40 | 0.0 | 2.0 | 0.00 | 0.01 | 0.00 | 53 | 1015.3 |
| 20260510054542 | 65 | 0 | 0.0 | 2.0 | 0.00 | 0.01 | 0.00 | 52 | 1015.4 |
| 20260510054023 | 66 | 66 | 0.0 | 1.0 | 0.00 | 0.01 | 0.00 | 52 | 1015.4 |
| 20260510053524 | 66 | 0 | 0.0 | 1.0 | 0.00 | 0.01 | 0.00 | 52 | 1015.4 |
| 20260510053036 | 66 | 0 | 0.0 | 2.0 | 0.00 | 0.01 | 0.00 | 52 | 1015.3 |
| 20260510052523 | 66 | 0 | 0.0 | 2.0 | 0.00 | 0.01 | 0.00 | 51 | 1015.3 |
| 20260510052023 | 66 | 69 | 0.0 | 2.0 | 0.00 | 0.01 | 0.00 | 51 | 1015.3 |
| 20260510051537 | 66 | 0 | 0.0 | 4.0 | 0.00 | 0.01 | 0.00 | 51 | 1015.0 |
| 20260510051024 | 66 | 0 | 0.0 | 4.0 | 0.00 | 0.01 | 0.00 | 51 | 1014.8 |
| 20260510050523 | 67 | 0 | 0.0 | 6.0 | 0.00 | 0.01 | 0.00 | 51 | 1014.6 |
| 20260510050035 | 67 | 36 | 1.0 | 8.0 | 0.00 | 0.01 | 0.00 | 50 | 1014.5 |
| 20260510045526 | 67 | 326 | 1.0 | 9.0 | 0.00 | 0.01 | 0.01 | 50 | 1014.4 |
| 20260510045024 | 67 | 38 | 2.0 | 9.0 | 0.00 | 0.01 | 0.01 | 50 | 1014.3 |
| 20260510044537 | 67 | 360 | 2.0 | 9.0 | 0.00 | 0.01 | 0.01 | 51 | 1014.4 |
| 20260510044023 | 67 | 15 | 3.0 | 10.0 | 0.00 | 0.01 | 0.01 | 50 | 1014.3 |
| 20260510043523 | 67 | 355 | 2.0 | 10.0 | 0.00 | 0.01 | 0.01 | 50 | 1014.1 |
| 20260510043037 | 67 | 360 | 3.0 | 10.0 | 0.00 | 0.01 | 0.01 | 50 | 1014.1 |
| 20260510042526 | 68 | 24 | 2.0 | 9.0 | 0.00 | 0.01 | 0.01 | 50 | 1014.0 |
| 20260510042024 | 68 | 0 | 1.0 | 10.0 | 0.00 | 0.01 | 0.01 | 50 | 1013.9 |
| 20260510041546 | 68 | 40 | 3.0 | 10.0 | 0.00 | 0.01 | 0.01 | 50 | 1013.9 |
| 20260510041023 | 68 | 22 | 2.0 | 7.0 | 0.00 | 0.01 | 0.01 | 50 | 1013.7 |
| 20260510040521 | 68 | 360 | 2.0 | 7.0 | 0.00 | 0.01 | 0.01 | 50 | 1013.5 |
| 20260510040035 | 68 | 14 | 1.0 | 5.0 | 0.00 | 0.01 | 0.01 | 51 | 1013.4 |
| 20260510035521 | 68 | 32 | 0.0 | 5.0 | 0.00 | 0.01 | 0.01 | 51 | 1013.3 |
| 20260510035024 | 68 | 0 | 0.0 | 5.0 | 0.00 | 0.01 | 0.01 | 52 | 1013.3 |
| 20260510034540 | 68 | 0 | 0.0 | 3.0 | 0.00 | 0.01 | 0.01 | 52 | 1013.1 |
| 20260510034025 | 68 | 0 | 0.0 | 3.0 | 0.00 | 0.01 | 0.01 | 53 | 1012.9 |
| 20260510033520 | 68 | 0 | 0.0 | 3.0 | 0.00 | 0.01 | 0.01 | 53 | 1012.9 |
| 20260510033039 | 68 | 43 | 0.0 | 3.0 | 0.00 | 0.01 | 0.01 | 52 | 1012.7 |
| 20260510032523 | 68 | 0 | 0.0 | 3.0 | 0.00 | 0.01 | 0.01 | 53 | 1012.6 |
| 20260510032024 | 68 | 0 | 0.0 | 3.0 | 0.00 | 0.01 | 0.01 | 53 | 1012.5 |
| 20260510031538 | 68 | 0 | 0.0 | 3.0 | 0.00 | 0.01 | 0.01 | 53 | 1012.5 |
| 20260510031023 | 68 | 0 | 0.0 | 0.0 | 0.00 | 0.01 | 0.01 | 54 | 1012.6 |
| 20260510030523 | 68 | 0 | 0.0 | 0.0 | 0.00 | 0.01 | 0.01 | 55 | 1012.4 |
| 20260510030036 | 68 | 0 | 0.0 | 3.0 | 0.00 | 0.01 | 0.01 | 55 | 1012.4 |
| 20260510025524 | 68 | 0 | 0.0 | 3.0 | 0.00 | 0.01 | 0.01 | 54 | 1012.2 |
| 20260510025024 | 68 | 0 | 0.0 | 2.0 | 0.00 | 0.01 | 0.01 | 54 | 1012.1 |
| 20260510024534 | 69 | 46 | 0.0 | 2.0 | 0.00 | 0.01 | 0.01 | 54 | 1011.9 |
| 20260510024023 | 69 | 0 | 0.0 | 5.0 | 0.00 | 0.01 | 0.01 | 53 | 1011.8 |
| 20260510023523 | 69 | 0 | 1.0 | 5.0 | 0.00 | 0.01 | 0.01 | 52 | 1011.7 |
| 20260510023035 | 70 | 34 | 1.0 | 5.0 | 0.00 | 0.01 | 0.01 | 50 | 1011.8 |
| 20260510022528 | 71 | 32 | 1.0 | 5.0 | 0.00 | 0.01 | 0.01 | 47 | 1012.1 |
| 20260510022023 | 71 | 26 | 1.0 | 6.0 | 0.00 | 0.01 | 0.01 | 46 | 1012.1 |
| 20260510021539 | 71 | 0 | 1.0 | 8.0 | 0.00 | 0.01 | 0.01 | 45 | 1012.3 |
| 20260510021023 | 71 | 0 | 2.0 | 8.0 | 0.00 | 0.01 | 0.01 | 44 | 1012.0 |
| 20260510020523 | 72 | 352 | 2.0 | 9.0 | 0.00 | 0.01 | 0.01 | 44 | 1011.7 |
| 20260510020036 | 72 | 16 | 2.0 | 9.0 | 0.00 | 0.01 | 0.01 | 44 | 1011.5 |
| 20260510015523 | 72 | 47 | 3.0 | 9.0 | 0.00 | 0.01 | 0.01 | 44 | 1011.4 |
| 20260510015020 | 72 | 20 | 1.0 | 8.0 | 0.00 | 0.01 | 0.01 | 44 | 1011.1 |
| 20260510014536 | 72 | 14 | 2.0 | 12.0 | 0.00 | 0.01 | 0.01 | 43 | 1011.1 |
| 20260510014025 | 73 | 24 | 3.0 | 13.0 | 0.00 | 0.01 | 0.01 | 43 | 1011.1 |
| 20260510013523 | 73 | 338 | 5.0 | 13.0 | 0.00 | 0.01 | 0.01 | 42 | 1010.8 |
| 20260510013041 | 73 | 28 | 5.0 | 13.0 | 0.00 | 0.01 | 0.01 | 42 | 1010.8 |
| 20260510012523 | 73 | 350 | 4.0 | 12.0 | 0.00 | 0.01 | 0.01 | 42 | 1010.7 |
| 20260510012023 | 73 | 360 | 3.0 | 11.0 | 0.00 | 0.01 | 0.01 | 43 | 1010.7 |
| 20260510011536 | 74 | 35 | 4.0 | 11.0 | 0.00 | 0.01 | 0.01 | 43 | 1010.7 |
| 20260510011021 | 74 | 5 | 3.0 | 11.0 | 0.00 | 0.01 | 0.01 | 43 | 1010.7 |
| 20260510010522 | 74 | 0 | 2.0 | 10.0 | 0.00 | 0.01 | 0.01 | 43 | 1010.6 |
| 20260510010036 | 74 | 360 | 2.0 | 12.0 | 0.00 | 0.01 | 0.01 | 43 | 1010.4 |
| 20260510005523 | 74 | 25 | 1.0 | 12.0 | 0.00 | 0.01 | 0.01 | 43 | 1010.3 |
| 20260510005022 | 74 | 335 | 2.0 | 12.0 | 0.00 | 0.01 | 0.01 | 43 | 1010.1 |
| 20260510004536 | 74 | 22 | 1.0 | 11.0 | 0.00 | 0.01 | 0.01 | 43 | 1010.0 |
| 20260510004022 | 75 | 0 | 2.0 | 11.0 | 0.00 | 0.01 | 0.01 | 42 | 1010.0 |
| 20260510003523 | 75 | 28 | 2.0 | 11.0 | 0.00 | 0.01 | 0.01 | 42 | 1010.0 |
| 20260510003051 | 75 | 46 | 3.0 | 9.0 | 0.00 | 0.01 | 0.01 | 42 | 1009.9 |
| 20260510002522 | 76 | 5 | 1.0 | 11.0 | 0.00 | 0.01 | 0.01 | 41 | 1009.8 |
| 20260510002023 | 76 | 348 | 2.0 | 11.0 | 0.00 | 0.01 | 0.01 | 42 | 1009.8 |
| 20260510001541 | 76 | 28 | 3.0 | 12.0 | 0.00 | 0.01 | 0.01 | 41 | 1009.7 |
| 20260510001024 | 76 | 31 | 3.0 | 18.0 | 0.00 | 0.01 | 0.01 | 41 | 1009.7 |
| 20260510000524 | 77 | 360 | 5.0 | 18.0 | 0.00 | 0.01 | 0.01 | 40 | 1009.6 |
| 20260510000039 | 77 | 348 | 5.0 | 16.0 | 0.00 | 0.01 | 0.01 | 39 | 1009.7 |
| 20260509235521 | 78 | 355 | 2.0 | 10.0 | 0.00 | 0.01 | 0.01 | 38 | 1009.6 |
| 20260509235109 | 78 | 292 | 2.0 | 9.0 | 0.00 | 0.01 | 0.01 | 38 | 1009.4 |
| 20260509234545 | 78 | 292 | 3.0 | 9.0 | 0.00 | 0.01 | 0.01 | 38 | 1009.3 |
| 20260509234030 | 78 | 297 | 2.0 | 6.0 | 0.00 | 0.01 | 0.01 | 38 | 1009.3 |
| 20260509233525 | 78 | 340 | 1.0 | 12.0 | 0.00 | 0.01 | 0.01 | 38 | 1009.3 |
| 20260509233040 | 78 | 320 | 3.0 | 12.0 | 0.00 | 0.01 | 0.01 | 37 | 1009.2 |
| 20260509232525 | 78 | 284 | 1.0 | 9.0 | 0.00 | 0.01 | 0.01 | 38 | 1009.2 |
| 20260509232027 | 78 | 51 | 2.0 | 9.0 | 0.00 | 0.01 | 0.01 | 38 | 1009.1 |
| 20260509231536 | 78 | 286 | 2.0 | 9.0 | 0.00 | 0.01 | 0.01 | 37 | 1009.1 |
| 20260509231026 | 79 | 300 | 1.0 | 7.0 | 0.00 | 0.01 | 0.01 | 37 | 1009.1 |
| 20260509230525 | 79 | 287 | 1.0 | 11.0 | 0.00 | 0.01 | 0.01 | 36 | 1008.9 |
| 20260509230036 | 79 | 302 | 1.0 | 11.0 | 0.00 | 0.01 | 0.01 | 37 | 1008.9 |
| 20260509225525 | 79 | 310 | 3.0 | 12.0 | 0.00 | 0.01 | 0.01 | 36 | 1009.0 |
| 20260509225025 | 79 | 346 | 3.0 | 12.0 | 0.00 | 0.01 | 0.01 | 36 | 1009.0 |
| 20260509224536 | 80 | 293 | 1.0 | 12.0 | 0.00 | 0.01 | 0.01 | 36 | 1009.0 |
| 20260509224023 | 80 | 318 | 3.0 | 12.0 | 0.00 | 0.01 | 0.01 | 35 | 1009.0 |
| 20260509223525 | 80 | 285 | 2.0 | 10.0 | 0.00 | 0.01 | 0.01 | 35 | 1008.8 |
| 20260509223035 | 80 | 0 | 3.0 | 12.0 | 0.00 | 0.01 | 0.01 | 34 | 1008.6 |
| 20260509222524 | 81 | 287 | 4.0 | 15.0 | 0.00 | 0.01 | 0.01 | 33 | 1008.7 |
| 20260509222025 | 81 | 300 | 5.0 | 15.0 | 0.00 | 0.01 | 0.01 | 32 | 1008.8 |
| 20260509221536 | 81 | 282 | 4.0 | 12.0 | 0.00 | 0.01 | 0.01 | 33 | 1008.7 |
| 20260509221028 | 81 | 284 | 5.0 | 12.0 | 0.00 | 0.01 | 0.01 | 32 | 1008.6 |
| 20260509220525 | 81 | 331 | 2.0 | 12.0 | 0.00 | 0.01 | 0.01 | 33 | 1008.5 |
| 20260509220052 | 82 | 285 | 3.0 | 12.0 | 0.00 | 0.01 | 0.01 | 33 | 1008.5 |
| 20260509215524 | 82 | 307 | 4.0 | 14.0 | 0.00 | 0.02 | 0.01 | 32 | 1008.5 |
| 20260509215028 | 82 | 268 | 3.0 | 14.0 | 0.00 | 0.02 | 0.01 | 32 | 1008.5 |
| 20260509214540 | 82 | 197 | 2.0 | 13.0 | 0.00 | 0.02 | 0.01 | 32 | 1008.4 |
| 20260509214025 | 82 | 275 | 4.0 | 18.0 | 0.00 | 0.02 | 0.01 | 30 | 1008.3 |
| 20260509213527 | 83 | 279 | 5.0 | 18.0 | 0.00 | 0.02 | 0.01 | 30 | 1008.3 |
| 20260509213042 | 83 | 292 | 5.0 | 12.0 | 0.00 | 0.02 | 0.01 | 29 | 1008.3 |
| 20260509212526 | 83 | 0 | 3.0 | 13.0 | 0.00 | 0.02 | 0.01 | 30 | 1008.2 |
| 20260509212023 | 83 | 269 | 2.0 | 13.0 | 0.00 | 0.02 | 0.01 | 30 | 1008.2 |
| 20260509211543 | 83 | 277 | 5.0 | 13.0 | 0.00 | 0.02 | 0.01 | 28 | 1008.3 |
| 20260509211025 | 84 | 323 | 3.0 | 13.0 | 0.00 | 0.02 | 0.01 | 28 | 1008.3 |
| 20260509210525 | 84 | 333 | 4.0 | 18.0 | 0.00 | 0.02 | 0.01 | 29 | 1008.2 |
| 20260509210036 | 84 | 295 | 3.0 | 18.0 | 0.00 | 0.02 | 0.01 | 28 | 1008.2 |
| 20260509205525 | 84 | 296 | 5.0 | 18.0 | 0.00 | 0.02 | 0.01 | 27 | 1008.3 |
| 20260509205024 | 84 | 307 | 4.0 | 15.0 | 0.00 | 0.02 | 0.01 | 27 | 1008.4 |
| 20260509204555 | 85 | 284 | 5.0 | 14.0 | 0.00 | 0.02 | 0.01 | 27 | 1008.5 |
| 20260509204024 | 84 | 272 | 5.0 | 16.0 | 0.00 | 0.02 | 0.01 | 28 | 1008.5 |
| 20260509203524 | 84 | 252 | 5.0 | 16.0 | 0.00 | 0.02 | 0.01 | 29 | 1008.4 |
| 20260509203039 | 84 | 280 | 7.0 | 16.0 | 0.00 | 0.02 | 0.01 | 29 | 1008.6 |
| 20260509202523 | 84 | 270 | 5.0 | 16.0 | 0.00 | 0.02 | 0.01 | 30 | 1008.6 |
| 20260509202023 | 83 | 273 | 7.0 | 16.0 | 0.00 | 0.02 | 0.01 | 29 | 1008.7 |
| 20260509201541 | 84 | 225 | 4.0 | 10.0 | 0.00 | 0.02 | 0.01 | 30 | 1008.6 |
| 20260509201024 | 84 | 87 | 2.0 | 13.0 | 0.00 | 0.02 | 0.01 | 30 | 1008.6 |
| 20260509200525 | 83 | 0 | 2.0 | 13.0 | 0.00 | 0.02 | 0.01 | 31 | 1008.7 |
| 20260509200041 | 84 | 306 | 3.0 | 16.0 | 0.00 | 0.02 | 0.01 | 30 | 1008.7 |
| 20260509195524 | 83 | 284 | 6.0 | 16.0 | 0.00 | 0.03 | 0.01 | 30 | 1008.7 |
| 20260509195028 | 83 | 289 | 6.0 | 17.0 | 0.00 | 0.03 | 0.01 | 30 | 1008.9 |
| 20260509194541 | 83 | 303 | 8.0 | 17.0 | 0.00 | 0.03 | 0.01 | 29 | 1008.9 |
| 20260509194024 | 83 | 302 | 7.0 | 18.0 | 0.00 | 0.03 | 0.01 | 32 | 1009.0 |
| 20260509193525 | 82 | 268 | 5.0 | 18.0 | 0.00 | 0.03 | 0.01 | 33 | 1009.0 |
| 20260509193045 | 83 | 269 | 6.0 | 17.0 | 0.00 | 0.03 | 0.01 | 31 | 1009.1 |
| 20260509192527 | 82 | 306 | 7.0 | 17.0 | 0.00 | 0.03 | 0.01 | 33 | 1009.0 |
| 20260509192027 | 83 | 284 | 5.0 | 14.0 | 0.00 | 0.03 | 0.01 | 33 | 1009.1 |
| 20260509191546 | 82 | 310 | 2.0 | 16.0 | 0.00 | 0.03 | 0.01 | 34 | 1009.1 |
| 20260509191025 | 82 | 282 | 6.0 | 16.0 | 0.00 | 0.03 | 0.01 | 32 | 1009.1 |
| 20260509190527 | 82 | 292 | 6.0 | 17.0 | 0.00 | 0.03 | 0.01 | 33 | 1009.3 |
| 20260509190039 | 82 | 289 | 6.0 | 17.0 | 0.00 | 0.03 | 0.01 | 32 | 1009.4 |
| 20260509185525 | 83 | 287 | 5.0 | 14.0 | 0.00 | 0.03 | 0.01 | 33 | 1009.3 |
| 20260509185028 | 83 | 229 | 4.0 | 13.0 | 0.00 | 0.03 | 0.01 | 34 | 1009.3 |
| 20260509184538 | 83 | 301 | 3.0 | 12.0 | 0.00 | 0.03 | 0.01 | 34 | 1009.4 |
| 20260509184024 | 82 | 162 | 3.0 | 13.0 | 0.00 | 0.03 | 0.01 | 36 | 1009.5 |
| 20260509183525 | 82 | 281 | 3.0 | 15.0 | 0.00 | 0.03 | 0.01 | 35 | 1009.5 |
| 20260509183035 | 82 | 236 | 4.0 | 15.0 | 0.00 | 0.03 | 0.01 | 34 | 1009.5 |
| 20260509182524 | 83 | 260 | 3.0 | 11.0 | 0.00 | 0.03 | 0.01 | 36 | 1009.5 |
| 20260509182024 | 82 | 317 | 2.0 | 11.0 | 0.00 | 0.03 | 0.01 | 37 | 1009.6 |
| 20260509181535 | 82 | 261 | 2.0 | 11.0 | 0.00 | 0.03 | 0.01 | 36 | 1009.6 |
| 20260509181025 | 82 | 274 | 2.0 | 8.0 | 0.00 | 0.03 | 0.01 | 37 | 1009.7 |
| 20260509180526 | 82 | 308 | 2.0 | 8.0 | 0.00 | 0.03 | 0.01 | 37 | 1009.7 |
| 20260509180043 | 82 | 111 | 2.0 | 10.0 | 0.00 | 0.03 | 0.01 | 40 | 1009.8 |
| 20260509175527 | 81 | 277 | 2.0 | 12.0 | 0.00 | 0.03 | 0.01 | 41 | 1009.9 |
| 20260509175026 | 80 | 304 | 2.0 | 12.0 | 0.00 | 0.03 | 0.01 | 40 | 1009.8 |
| 20260509174536 | 80 | 300 | 4.0 | 12.0 | 0.00 | 0.03 | 0.01 | 40 | 1009.9 |
| 20260509174024 | 80 | 315 | 3.0 | 13.0 | 0.00 | 0.03 | 0.01 | 39 | 1010.1 |
| 20260509173522 | 79 | 298 | 5.0 | 13.0 | 0.00 | 0.03 | 0.01 | 42 | 1010.1 |
| 20260509173039 | 80 | 294 | 1.0 | 12.0 | 0.00 | 0.03 | 0.01 | 40 | 1010.1 |
| 20260509172521 | 78 | 0 | 4.0 | 12.0 | 0.00 | 0.03 | 0.01 | 41 | 1010.1 |
| 20260509172024 | 79 | 290 | 2.0 | 10.0 | 0.00 | 0.03 | 0.01 | 40 | 1010.2 |
| 20260509171538 | 79 | 285 | 2.0 | 10.0 | 0.00 | 0.03 | 0.01 | 42 | 1010.2 |
| 20260509171021 | 79 | 187 | 2.0 | 8.0 | 0.00 | 0.03 | 0.01 | 42 | 1010.2 |
| 20260509170523 | 78 | 200 | 2.0 | 9.0 | 0.00 | 0.03 | 0.01 | 43 | 1010.3 |
| 20260509170038 | 78 | 265 | 1.0 | 9.0 | 0.00 | 0.03 | 0.01 | 44 | 1010.3 |
| 20260509165524 | 78 | 285 | 3.0 | 9.0 | 0.00 | 0.03 | 0.01 | 41 | 1010.3 |
| 20260509165027 | 78 | 269 | 1.0 | 9.0 | 0.00 | 0.03 | 0.01 | 42 | 1010.3 |
| 20260509164536 | 78 | 0 | 1.0 | 9.0 | 0.00 | 0.03 | 0.01 | 44 | 1010.3 |
| 20260509164024 | 77 | 0 | 2.0 | 9.0 | 0.00 | 0.03 | 0.01 | 45 | 1010.2 |
| 20260509163522 | 77 | 280 | 1.0 | 9.0 | 0.00 | 0.03 | 0.01 | 45 | 1010.2 |
| 20260509163040 | 76 | 283 | 3.0 | 9.0 | 0.00 | 0.03 | 0.01 | 44 | 1010.3 |
| 20260509162522 | 77 | 301 | 0.0 | 9.0 | 0.00 | 0.03 | 0.01 | 45 | 1010.2 |
| 20260509162025 | 75 | 304 | 3.0 | 10.0 | 0.00 | 0.03 | 0.01 | 46 | 1010.2 |
| 20260509161536 | 75 | 254 | 2.0 | 10.0 | 0.00 | 0.03 | 0.01 | 46 | 1010.2 |
| 20260509161026 | 76 | 0 | 1.0 | 11.0 | 0.00 | 0.03 | 0.01 | 46 | 1010.2 |
| 20260509160524 | 75 | 231 | 1.0 | 13.0 | 0.00 | 0.03 | 0.01 | 46 | 1010.1 |
| 20260509160035 | 74 | 292 | 7.0 | 13.0 | 0.00 | 0.03 | 0.01 | 46 | 1010.1 |
| 20260509155522 | 74 | 296 | 3.0 | 8.0 | 0.00 | 0.03 | 0.01 | 48 | 1010.1 |
| 20260509155022 | 74 | 291 | 2.0 | 10.0 | 0.00 | 0.03 | 0.01 | 48 | 1010.1 |
| 20260509154536 | 73 | 271 | 1.0 | 11.0 | 0.00 | 0.03 | 0.01 | 52 | 1010.1 |
| 20260509154024 | 73 | 296 | 4.0 | 11.0 | 0.00 | 0.03 | 0.01 | 49 | 1010.2 |
| 20260509153522 | 72 | 303 | 2.0 | 11.0 | 0.00 | 0.03 | 0.01 | 49 | 1010.2 |
| 20260509153036 | 72 | 296 | 1.0 | 15.0 | 0.00 | 0.03 | 0.01 | 52 | 1010.2 |
| 20260509152524 | 71 | 0 | 1.0 | 15.0 | 0.00 | 0.03 | 0.01 | 55 | 1010.2 |
| 20260509152024 | 70 | 295 | 7.0 | 15.0 | 0.00 | 0.03 | 0.01 | 53 | 1010.3 |
| 20260509151535 | 71 | 347 | 0.0 | 14.0 | 0.00 | 0.03 | 0.01 | 56 | 1010.2 |
| 20260509151023 | 70 | 278 | 2.0 | 14.0 | 0.00 | 0.03 | 0.01 | 56 | 1010.2 |
| 20260509150523 | 69 | 273 | 2.0 | 10.0 | 0.00 | 0.03 | 0.01 | 57 | 1010.2 |
| 20260509150036 | 69 | 0 | 1.0 | 10.0 | 0.00 | 0.03 | 0.01 | 61 | 1010.2 |
| 20260509145523 | 69 | 0 | 0.0 | 10.0 | 0.00 | 0.03 | 0.01 | 60 | 1010.1 |
| 20260509145023 | 68 | 277 | 1.0 | 8.0 | 0.00 | 0.03 | 0.01 | 58 | 1010.2 |
| 20260509144544 | 68 | 0 | 0.0 | 4.0 | 0.00 | 0.03 | 0.01 | 61 | 1010.1 |
| 20260509144023 | 67 | 0 | 0.0 | 5.0 | 0.00 | 0.03 | 0.01 | 64 | 1010.2 |
| 20260509143527 | 66 | 0 | 0.0 | 5.0 | 0.00 | 0.03 | 0.01 | 64 | 1010.2 |
| 20260509143039 | 66 | 254 | 0.0 | 4.0 | 0.00 | 0.03 | 0.01 | 64 | 1010.2 |
| 20260509142524 | 65 | 297 | 0.0 | 8.0 | 0.00 | 0.03 | 0.01 | 67 | 1010.3 |
| 20260509142023 | 65 | 0 | 0.0 | 8.0 | 0.00 | 0.03 | 0.01 | 67 | 1010.2 |
| 20260509141539 | 65 | 310 | 0.0 | 3.0 | 0.00 | 0.03 | 0.01 | 68 | 1010.1 |
| 20260509141024 | 64 | 0 | 0.0 | 7.0 | 0.00 | 0.03 | 0.01 | 68 | 1010.3 |
| 20260509140523 | 63 | 284 | 0.0 | 7.0 | 0.00 | 0.03 | 0.01 | 71 | 1010.2 |
| 20260509140054 | 63 | 0 | 0.0 | 2.0 | 0.00 | 0.03 | 0.01 | 71 | 1010.2 |
| 20260509135526 | 62 | 0 | 0.0 | 4.0 | 0.00 | 0.03 | 0.01 | 73 | 1010.2 |
| 20260509135026 | 62 | 0 | 0.0 | 4.0 | 0.00 | 0.03 | 0.01 | 74 | 1010.2 |
| 20260509134537 | 61 | 0 | 0.0 | 2.0 | 0.00 | 0.03 | 0.01 | 75 | 1010.1 |
| 20260509134023 | 60 | 263 | 0.0 | 2.0 | 0.00 | 0.03 | 0.01 | 77 | 1010.1 |
| 20260509133521 | 59 | 0 | 0.0 | 2.0 | 0.00 | 0.03 | 0.01 | 78 | 1010.1 |
| 20260509133036 | 59 | 266 | 0.0 | 1.0 | 0.00 | 0.03 | 0.01 | 79 | 1010.1 |
| 20260509132522 | 58 | 0 | 0.0 | 2.0 | 0.00 | 0.03 | 0.01 | 81 | 1010.1 |
| 20260509132023 | 58 | 0 | 0.0 | 4.0 | 0.00 | 0.03 | 0.01 | 82 | 1010.2 |
| 20260509131545 | 57 | 0 | 0.0 | 4.0 | 0.00 | 0.03 | 0.01 | 84 | 1010.2 |
| 20260509131023 | 56 | 0 | 0.0 | 1.0 | 0.00 | 0.03 | 0.01 | 85 | 1010.1 |
| 20260509130523 | 55 | 0 | 0.0 | 4.0 | 0.00 | 0.03 | 0.01 | 86 | 1010.2 |
| 20260509130035 | 55 | 0 | 0.0 | 4.0 | 0.00 | 0.03 | 0.01 | 87 | 1010.2 |
| 20260509125527 | 55 | 0 | 0.0 | 2.0 | 0.00 | 0.03 | 0.01 | 87 | 1010.1 |
| 20260509125026 | 54 | 0 | 0.0 | 2.0 | 0.00 | 0.03 | 0.01 | 88 | 1010.1 |
| 20260509124542 | 54 | 0 | 0.0 | 4.0 | 0.00 | 0.03 | 0.01 | 89 | 1009.9 |
| 20260509124023 | 53 | 0 | 0.0 | 4.0 | 0.00 | 0.03 | 0.01 | 89 | 1009.9 |
| 20260509123523 | 53 | 0 | 0.0 | 1.0 | 0.00 | 0.03 | 0.01 | 89 | 1009.9 |
| 20260509123037 | 53 | 0 | 0.0 | 0.0 | 0.00 | 0.03 | 0.01 | 89 | 1009.8 |
| 20260509122522 | 53 | 0 | 0.0 | 0.0 | 0.00 | 0.03 | 0.01 | 89 | 1009.8 |
| 20260509122020 | 52 | 0 | 0.0 | 4.0 | 0.00 | 0.03 | 0.01 | 89 | 1009.7 |
| 20260509121551 | 52 | 0 | 0.0 | 4.0 | 0.00 | 0.03 | 0.01 | 90 | 1009.7 |
| 20260509121031 | 52 | 0 | 0.0 | 4.0 | 0.00 | 0.03 | 0.01 | 89 | 1009.7 |
| 20260509120523 | 51 | 0 | 0.0 | 4.0 | 0.00 | 0.03 | 0.01 | 90 | 1009.6 |
| 20260509120038 | 51 | 0 | 0.0 | 0.0 | 0.00 | 0.03 | 0.01 | 90 | 1009.7 |
| 20260509115523 | 51 | 0 | 0.0 | 0.0 | 0.00 | 0.03 | 0.01 | 90 | 1009.7 |
| 20260509115023 | 51 | 0 | 0.0 | 0.0 | 0.00 | 0.03 | 0.01 | 90 | 1009.6 |
| 20260509114535 | 51 | 0 | 0.0 | 0.0 | 0.01 | 0.03 | 0.01 | 90 | 1009.5 |
| 20260509114023 | 51 | 0 | 0.0 | 0.0 | 0.01 | 0.03 | 0.01 | 89 | 1009.5 |
| 20260509113522 | 51 | 0 | 0.0 | 0.0 | 0.01 | 0.03 | 0.01 | 89 | 1009.4 |
| 20260509113034 | 51 | 0 | 0.0 | 0.0 | 0.01 | 0.03 | 0.01 | 90 | 1009.3 |
| 20260509112521 | 51 | 0 | 0.0 | 0.0 | 0.01 | 0.03 | 0.01 | 90 | 1009.3 |
| 20260509112023 | 51 | 0 | 0.0 | 0.0 | 0.01 | 0.03 | 0.01 | 90 | 1009.4 |
| 20260509111538 | 51 | 0 | 0.0 | 0.0 | 0.01 | 0.03 | 0.01 | 89 | 1009.3 |
| 20260509111024 | 51 | 0 | 0.0 | 1.0 | 0.01 | 0.03 | 0.01 | 89 | 1009.2 |
| 20260509110523 | 51 | 0 | 0.0 | 1.0 | 0.01 | 0.03 | 0.01 | 89 | 1009.3 |
| 20260509110038 | 51 | 0 | 0.0 | 0.0 | 0.01 | 0.03 | 0.01 | 90 | 1009.3 |
| 20260509105525 | 51 | 0 | 0.0 | 0.0 | 0.01 | 0.03 | 0.01 | 90 | 1009.1 |
| 20260509105023 | 51 | 0 | 0.0 | 0.0 | 0.01 | 0.03 | 0.01 | 90 | 1009.1 |
| 20260509104537 | 51 | 0 | 0.0 | 0.0 | 0.00 | 0.02 | 0.00 | 89 | 1009.1 |
| 20260509104024 | 52 | 0 | 0.0 | 0.0 | 0.00 | 0.02 | 0.00 | 89 | 1009.0 |
| 20260509103526 | 52 | 0 | 0.0 | 0.0 | 0.00 | 0.02 | 0.00 | 90 | 1008.9 |
| 20260509103037 | 52 | 0 | 0.0 | 0.0 | 0.00 | 0.02 | 0.00 | 89 | 1008.9 |
| 20260509102525 | 52 | 0 | 0.0 | 0.0 | 0.00 | 0.02 | 0.00 | 89 | 1008.8 |
| 20260509102023 | 52 | 0 | 0.0 | 0.0 | 0.00 | 0.02 | 0.00 | 89 | 1008.8 |
| 20260509101537 | 52 | 0 | 0.0 | 0.0 | 0.00 | 0.02 | 0.00 | 89 | 1008.9 |
| 20260509101025 | 52 | 0 | 0.0 | 0.0 | 0.00 | 0.02 | 0.00 | 89 | 1008.9 |
| 20260509100523 | 52 | 0 | 0.0 | 0.0 | 0.00 | 0.02 | 0.00 | 89 | 1008.9 |
| 20260509100038 | 52 | 0 | 0.0 | 0.0 | 0.00 | 0.02 | 0.00 | 89 | 1008.8 |
| 20260509095526 | 52 | 0 | 0.0 | 0.0 | 0.00 | 0.02 | 0.00 | 89 | 1008.9 |
| 20260509095024 | 52 | 0 | 0.0 | 0.0 | 0.00 | 0.02 | 0.00 | 89 | 1008.9 |
| 20260509094538 | 52 | 0 | 0.0 | 0.0 | 0.00 | 0.02 | 0.00 | 89 | 1008.9 |
| 20260509094023 | 52 | 0 | 0.0 | 0.0 | 0.00 | 0.02 | 0.00 | 89 | 1008.9 |
| 20260509093526 | 53 | 0 | 0.0 | 0.0 | 0.00 | 0.02 | 0.00 | 89 | 1008.9 |
| 20260509093038 | 53 | 0 | 0.0 | 0.0 | 0.00 | 0.02 | 0.00 | 89 | 1008.9 |
| 20260509092525 | 53 | 0 | 0.0 | 0.0 | 0.00 | 0.02 | 0.00 | 89 | 1008.9 |
| 20260509092025 | 53 | 0 | 0.0 | 0.0 | 0.00 | 0.02 | 0.00 | 89 | 1008.9 |
| 20260509091536 | 53 | 0 | 0.0 | 0.0 | 0.00 | 0.02 | 0.00 | 89 | 1009.0 |
| 20260509091025 | 53 | 0 | 0.0 | 0.0 | 0.00 | 0.02 | 0.00 | 89 | 1009.0 |
| 20260509090526 | 53 | 0 | 0.0 | 0.0 | 0.00 | 0.02 | 0.00 | 89 | 1009.0 |
| 20260509090035 | 53 | 0 | 0.0 | 0.0 | 0.00 | 0.02 | 0.00 | 89 | 1009.1 |
| 20260509085525 | 53 | 0 | 0.0 | 0.0 | 0.00 | 0.02 | 0.00 | 89 | 1009.1 |
| 20260509085026 | 53 | 0 | 0.0 | 0.0 | 0.00 | 0.02 | 0.00 | 89 | 1009.1 |
| 20260509084544 | 53 | 0 | 0.0 | 0.0 | 0.00 | 0.02 | 0.00 | 89 | 1009.0 |
| 20260509084025 | 53 | 0 | 0.0 | 0.0 | 0.00 | 0.02 | 0.00 | 89 | 1009.0 |
| 20260509083524 | 54 | 0 | 0.0 | 0.0 | 0.00 | 0.02 | 0.00 | 89 | 1009.0 |
| 20260509083046 | 54 | 0 | 0.0 | 0.0 | 0.00 | 0.02 | 0.00 | 89 | 1009.0 |
| 20260509082526 | 54 | 0 | 0.0 | 0.0 | 0.00 | 0.02 | 0.00 | 89 | 1009.0 |
| 20260509082026 | 54 | 0 | 0.0 | 2.0 | 0.00 | 0.02 | 0.00 | 89 | 1008.9 |
| 20260509081536 | 54 | 0 | 0.0 | 5.0 | 0.00 | 0.02 | 0.00 | 89 | 1008.9 |
| 20260509081023 | 54 | 0 | 0.0 | 5.0 | 0.00 | 0.02 | 0.00 | 89 | 1009.0 |
| 20260509080523 | 54 | 0 | 0.0 | 2.0 | 0.00 | 0.02 | 0.00 | 89 | 1008.9 |
| 20260509080037 | 54 | 0 | 0.0 | 0.0 | 0.00 | 0.02 | 0.00 | 89 | 1008.9 |
| 20260509075525 | 53 | 0 | 0.0 | 0.0 | 0.00 | 0.02 | 0.00 | 89 | 1008.8 |
| 20260509075024 | 53 | 0 | 0.0 | 0.0 | 0.00 | 0.02 | 0.00 | 89 | 1009.0 |
| 20260509074537 | 53 | 0 | 0.0 | 1.0 | 0.00 | 0.02 | 0.00 | 89 | 1009.0 |
| 20260509074023 | 53 | 0 | 0.0 | 1.0 | 0.00 | 0.02 | 0.00 | 89 | 1008.9 |